When you browse on this site, cookies collect data to enhance your experience and personalize the content and advertising you see.
Visit our Privacy Policy to learn more. By continuing to use the site, you agree to this use of cookies and data.
  • In Latvia
  • List of Countries
  • For 7 days
  • Water Temperature
  • Weather Map
  • Weather Widgets
  • user-avatar
    Login

    Hourly Weather Kreuzlingen

    Today, 30 May, Saturday

    Time Temperature Precipitation Wind Pressure Humidity
    00:00 +9°C° 0 mm 3 mps 725 mmHg 83%
    01:00 +8°C° 0 mm 2 mps 725 mmHg 86%
    02:00 +8°C° 0 mm 2 mps 724 mmHg 87%
    03:00 +7°C° 0 mm 2 mps 724 mmHg 88%
    04:00 +7°C° 0 mm 2 mps 724 mmHg 89%
    05:00 +8°C° 0 mm 2 mps 724 mmHg 84%
    06:00 +9°C° 0 mm 2 mps 724 mmHg 79%
    07:00 +11°C° 0 mm 3 mps 724 mmHg 73%
    08:00 +12°C° 0 mm 3 mps 724 mmHg 66%
    09:00 +14°C° 0 mm 4 mps 724 mmHg 59%
    10:00 +15°C° 0 mm 4 mps 723 mmHg 53%
    11:00 +17°C° 0 mm 4 mps 723 mmHg 51%
    12:00 +17°C° 0 mm 5 mps 723 mmHg 50%
    13:00 +19°C° 0 mm 4 mps 723 mmHg 48%
    14:00 +18°C° 0 mm 4 mps 723 mmHg 51%
    15:00 +17°C° 0 mm 5 mps 723 mmHg 54%
    16:00 +17°C° 0 mm 5 mps 723 mmHg 56%
    17:00 +17°C° 0 mm 4 mps 723 mmHg 61%
    18:00 +15°C° 0 mm 4 mps 722 mmHg 66%
    19:00 +14°C° 0 mm 3 mps 722 mmHg 71%
    20:00 +12°C° 0 mm 3 mps 723 mmHg 77%
    21:00 +12°C° 0 mm 2 mps 723 mmHg 83%
    22:00 +9°C° 0 mm 2 mps 723 mmHg 89%
    23:00 +9°C° 0 mm 2 mps 723 mmHg 89%

    Tomorrow, 31 May, Sunday

    Time Temperature Precipitation Wind Pressure Humidity
    00:00 +8°C° 0 mm 2 mps 723 mmHg 90%
    01:00 +8°C° 0 mm 2 mps 723 mmHg 91%
    02:00 +7°C° 0 mm 2 mps 723 mmHg 91%
    03:00 +6°C° 0 mm 2 mps 723 mmHg 91%
    04:00 +6°C° 0 mm 2 mps 723 mmHg 91%
    05:00 +7°C° 0 mm 2 mps 723 mmHg 86%
    06:00 +8°C° 0 mm 2 mps 723 mmHg 82%
    07:00 +9°C° 0 mm 2 mps 723 mmHg 77%
    08:00 +12°C° 0 mm 2 mps 723 mmHg 70%
    09:00 +13°C° 0 mm 3 mps 723 mmHg 63%
    10:00 +15°C° 0 mm 4 mps 723 mmHg 56%
    11:00 +17°C° 0 mm 4 mps 723 mmHg 55%
    12:00 +18°C° 0 mm 4 mps 723 mmHg 54%
    13:00 +18°C° 0 mm 4 mps 723 mmHg 53%
    14:00 +18°C° 0 mm 4 mps 723 mmHg 54%
    15:00 +17°C° 0 mm 5 mps 723 mmHg 55%
    16:00 +17°C° 0 mm 5 mps 723 mmHg 56%
    17:00 +17°C° 0 mm 4 mps 723 mmHg 60%
    18:00 +15°C° 0 mm 4 mps 723 mmHg 65%
    19:00 +14°C° 0 mm 3 mps 723 mmHg 69%
    20:00 +13°C° 0 mm 3 mps 723 mmHg 74%
    21:00 +11°C° 0 mm 3 mps 723 mmHg 78%
    22:00 +10°C° 0 mm 2 mps 724 mmHg 82%
    23:00 +9°C° 0 mm 2 mps 724 mmHg 82%

    Day after tomorrow, 1 June, Monday

    Time Temperature Precipitation Wind Pressure Humidity
    00:00 +9°C° 0 mm 2 mps 724 mmHg 82%
    01:00 +9°C° 0 mm 2 mps 724 mmHg 82%
    02:00 +8°C° 0 mm 2 mps 723 mmHg 85%
    03:00 +8°C° 0 mm 2 mps 723 mmHg 87%
    04:00 +7°C° 0 mm 2 mps 723 mmHg 89%
    05:00 +8°C° 0 mm 2 mps 723 mmHg 85%
    06:00 +10°C° 0 mm 2 mps 723 mmHg 81%
    07:00 +12°C° 0 mm 2 mps 723 mmHg 76%
    08:00 +14°C° 0 mm 2 mps 723 mmHg 71%
    09:00 +16°C° 0 mm 2 mps 723 mmHg 65%
    10:00 +18°C° 0 mm 3 mps 723 mmHg 59%
    11:00 +20°C° 0 mm 3 mps 723 mmHg 56%
    12:00 +21°C° 0 mm 3 mps 723 mmHg 53%
    13:00 +22°C° 0 mm 4 mps 723 mmHg 50%
    14:00 +22°C° 0 mm 4 mps 723 mmHg 51%
    15:00 +22°C° 0 mm 4 mps 723 mmHg 52%
    16:00 +22°C° 0 mm 4 mps 723 mmHg 54%
    17:00 +21°C° 0 mm 4 mps 723 mmHg 60%
    18:00 +20°C° 0 mm 4 mps 723 mmHg 66%
    19:00 +19°C° 0 mm 3 mps 723 mmHg 72%
    20:00 +17°C° 0 mm 3 mps 723 mmHg 76%
    21:00 +15°C° 0 mm 2 mps 723 mmHg 80%
    22:00 +14°C° 0 mm 2 mps 723 mmHg 84%
    23:00 +13°C° 0 mm 2 mps 723 mmHg 84%

    2 June, Tuesday

    Time Temperature Precipitation Wind Pressure Humidity
    00:00 +12°C° 0 mm 2 mps 723 mmHg 85%
    01:00 +10°C° 0 mm 2 mps 723 mmHg 86%
    02:00 +11°C° 0 mm 1 mps 723 mmHg 88%
    03:00 +10°C° 0 mm 1 mps 722 mmHg 90%
    04:00 +9°C° 0 mm 1 mps 722 mmHg 92%
    05:00 +11°C° 0 mm 1 mps 722 mmHg 88%
    06:00 +12°C° 0 mm 1 mps 722 mmHg 83%
    07:00 +14°C° 0 mm 1 mps 722 mmHg 79%
    08:00 +16°C° 0 mm 1 mps 722 mmHg 73%
    09:00 +18°C° 0 mm 2 mps 722 mmHg 67%
    10:00 +20°C° 0 mm 2 mps 722 mmHg 61%
    11:00 +21°C° 0 mm 2 mps 721 mmHg 57%
    12:00 +22°C° 0 mm 3 mps 721 mmHg 54%
    13:00 +24°C° 0 mm 3 mps 721 mmHg 51%
    14:00 +24°C° 0 mm 3 mps 720 mmHg 51%
    15:00 +24°C° 0 mm 3 mps 720 mmHg 52%
    16:00 +23°C° 0 mm 4 mps 719 mmHg 53%
    17:00 +21°C° 0 mm 4 mps 719 mmHg 59%
    18:00 +20°C° 0 mm 3 mps 718 mmHg 65%
    19:00 +19°C° 0 mm 3 mps 718 mmHg 70%
    20:00 +17°C° 0 mm 3 mps 718 mmHg 74%
    21:00 +15°C° 0 mm 2 mps 718 mmHg 78%
    22:00 +13°C° 0 mm 2 mps 718 mmHg 82%
    23:00 +13°C° 0 mm 2 mps 717 mmHg 83%

    3 June, Wednesday

    Time Temperature Precipitation Wind Pressure Humidity
    00:00 +12°C° 0 mm 1 mps 717 mmHg 84%
    01:00 +11°C° 0 mm 1 mps 716 mmHg 85%
    02:00 +11°C° 0 mm 1 mps 716 mmHg 88%
    03:00 +10°C° 0 mm 1 mps 716 mmHg 91%
    04:00 +9°C° 0 mm 1 mps 715 mmHg 93%
    05:00 +11°C° 0.1 mm 1 mps 715 mmHg 89%
    06:00 +11°C° 0.1 mm 0 mps 715 mmHg 86%
    07:00 +12°C° 0.1 mm 0 mps 715 mmHg 82%
    08:00 +15°C° 0.1 mm 1 mps 716 mmHg 77%
    09:00 +18°C° 0.1 mm 1 mps 716 mmHg 72%
    10:00 +20°C° 0.1 mm 1 mps 716 mmHg 67%
    11:00 +21°C° 0.1 mm 1 mps 716 mmHg 62%
    12:00 +23°C° 0.1 mm 1 mps 716 mmHg 58%
    13:00 +23°C° 0.1 mm 0 mps 716 mmHg 53%
    14:00 +25°C° 0.1 mm 1 mps 715 mmHg 53%
    15:00 +24°C° 0.1 mm 1 mps 715 mmHg 53%
    16:00 +24°C° 0.1 mm 2 mps 715 mmHg 53%
    17:00 +23°C° 0.2 mm 2 mps 715 mmHg 61%
    18:00 +21°C° 0.2 mm 2 mps 715 mmHg 69%
    19:00 +19°C° 0.2 mm 2 mps 715 mmHg 77%
    20:00 +18°C° 0 mm 2 mps 715 mmHg 80%
    21:00 +16°C° 0 mm 2 mps 715 mmHg 83%
    22:00 +15°C° 0 mm 1 mps 716 mmHg 86%
    23:00 +14°C° 0 mm 1 mps 716 mmHg 88%

    4 June, Thursday

    Time Temperature Precipitation Wind Pressure Humidity
    00:00 +13°C° 0 mm 1 mps 716 mmHg 89%
    01:00 +12°C° 0 mm 1 mps 715 mmHg 91%
    02:00 +12°C° 0 mm 1 mps 715 mmHg 91%
    03:00 +12°C° 0 mm 1 mps 716 mmHg 92%
    04:00 +10°C° 0 mm 0 mps 716 mmHg 92%
    05:00 +12°C° 0 mm 0 mps 716 mmHg 89%
    06:00 +13°C° 0 mm 0 mps 716 mmHg 85%
    07:00 +14°C° 0 mm 0 mps 716 mmHg 82%
    08:00 +17°C° 0 mm 0 mps 716 mmHg 75%
    09:00 +19°C° 0 mm 0 mps 716 mmHg 68%
    10:00 +24°C° 0 mm 1 mps 717 mmHg 61%
    11:00 +25°C° 0 mm 1 mps 717 mmHg 56%
    12:00 +26°C° 0 mm 1 mps 716 mmHg 51%
    13:00 +27°C° 0 mm 1 mps 716 mmHg 46%
    14:00 +27°C° 0.1 mm 1 mps 716 mmHg 47%
    15:00 +27°C° 0.1 mm 1 mps 716 mmHg 48%
    16:00 +26°C° 0.1 mm 1 mps 716 mmHg 50%
    17:00 +25°C° 0.1 mm 1 mps 716 mmHg 58%
    18:00 +23°C° 0.1 mm 1 mps 716 mmHg 67%
    19:00 +22°C° 0.1 mm 1 mps 716 mmHg 76%
    20:00 +21°C° 0.4 mm 1 mps 716 mmHg 80%
    21:00 +19°C° 0.4 mm 1 mps 717 mmHg 84%
    22:00 +18°C° 0.4 mm 1 mps 717 mmHg 88%
    23:00 +16°C° 0 mm 1 mps 717 mmHg 89%
    Show more